TimeEST,TemperatureF,Dew PointF,Humidity,Sea Level PressureIn,VisibilityMPH,Wind Direction,Wind SpeedMPH,Gust SpeedMPH,PrecipitationIn,Events,Conditions,WindDirDegrees,DateUTC
12:53 AM,50.0,44.1,80,30.53,10.0,NE,13.8,21.9,N/A,,Scattered Clouds,50,2012-11-18 05:53:00
1:53 AM,50.0,44.1,80,30.53,10.0,NE,11.5,-,N/A,,Mostly Cloudy,50,2012-11-18 06:53:00
2:53 AM,51.1,44.1,77,30.53,10.0,NE,12.7,-,N/A,,Overcast,50,2012-11-18 07:53:00
3:53 AM,51.1,44.1,77,30.53,10.0,NE,10.4,-,N/A,,Overcast,50,2012-11-18 08:53:00
4:53 AM,50.0,44.1,80,30.53,10.0,NE,11.5,18.4,N/A,,Clear,50,2012-11-18 09:53:00
5:53 AM,50.0,45.0,83,30.53,10.0,NE,13.8,20.7,N/A,,Clear,50,2012-11-18 10:53:00
6:53 AM,48.9,45.0,86,30.54,10.0,NNE,8.1,-,N/A,,Mostly Cloudy,30,2012-11-18 11:53:00
7:53 AM,52.0,44.1,74,30.55,10.0,NE,12.7,-,N/A,,Overcast,50,2012-11-18 12:53:00
8:53 AM,53.1,43.0,69,30.55,10.0,ENE,13.8,21.9,N/A,,Overcast,60,2012-11-18 13:53:00
9:53 AM,54.0,44.1,69,30.55,10.0,NE,17.3,25.3,N/A,,Mostly Cloudy,50,2012-11-18 14:53:00
10:53 AM,54.0,44.1,69,30.54,10.0,NE,15.0,24.2,N/A,,Overcast,50,2012-11-18 15:53:00
11:53 AM,55.0,45.0,69,30.52,10.0,NE,16.1,23.0,N/A,,Mostly Cloudy,50,2012-11-18 16:53:00
12:53 PM,55.0,45.0,69,30.49,10.0,NE,15.0,24.2,N/A,,Mostly Cloudy,40,2012-11-18 17:53:00
1:53 PM,55.0,46.0,72,30.48,10.0,NE,15.0,23.0,N/A,,Scattered Clouds,40,2012-11-18 18:53:00
2:53 PM,54.0,45.0,72,30.48,10.0,NE,17.3,25.3,N/A,,Mostly Cloudy,50,2012-11-18 19:53:00
3:53 PM,53.1,46.0,77,30.48,10.0,NE,15.0,23.0,N/A,,Overcast,40,2012-11-18 20:53:00
4:53 PM,51.1,46.0,83,30.48,10.0,NE,13.8,24.2,N/A,,Mostly Cloudy,40,2012-11-18 21:53:00
5:40 PM,51.8,44.6,76,30.47,10.0,NE,16.1,27.6,N/A,,Overcast,50,2012-11-18 22:40:00
5:48 PM,51.8,44.6,76,30.48,10.0,NE,15.0,23.0,N/A,,Overcast,50,2012-11-18 22:48:00
5:53 PM,51.1,45.0,80,30.48,10.0,NE,12.7,23.0,N/A,,Overcast,40,2012-11-18 22:53:00
6:53 PM,51.1,46.0,83,30.48,10.0,NE,13.8,23.0,N/A,,Overcast,50,2012-11-18 23:53:00
7:53 PM,51.1,46.0,83,30.47,10.0,NE,11.5,21.9,N/A,,Overcast,40,2012-11-19 00:53:00
8:53 PM,52.0,46.0,80,30.46,10.0,NE,15.0,24.2,N/A,,Overcast,40,2012-11-19 01:53:00
9:53 PM,52.0,46.0,80,30.45,10.0,NE,16.1,21.9,N/A,,Mostly Cloudy,40,2012-11-19 02:53:00
10:53 PM,52.0,46.0,80,30.44,10.0,NE,13.8,21.9,N/A,,Scattered Clouds,40,2012-11-19 03:53:00
11:53 PM,52.0,46.9,83,30.42,10.0,NE,15.0,24.2,N/A,,Mostly Cloudy,50,2012-11-19 04:53:00